Home > Weather > Aleppo > Past weeks

Flag for Syria Weather for the Past 2 Weeks in Aleppo, Syria

Now
39 °F

Light rain. Overcast.


Feels Like: 34 °F
Forecast: 32 / 54 °F
Wind: 7 mph from West

Location: Gaziantep Airport

Current Time: Feb 7, 2016 at 4:19:24 AM

Latest Report: Feb 7, 2016 at 3:20 AM


Visibility: 5 mi

Pressure: 29.77 "Hg

Humidity: 93%

Dew point: 37 °F

Location of AleppoLocation

Historic Weather in Aleppo — Graph

°F

Aleppo Temperature Yesterday

Maximum temperature yesterday: 46 °F (at 12:20 AM)
Minimum temperature yesterday: 37 °F (at 8:20 PM)
Average temperature yesterday: 42 °F

High & Low Weather Summary for the Past Weeks

 TemperatureHumidityPressure
High57 °F (Feb 3, 2:50 PM)100% (Jan 24, 7:20 PM)30.39 "Hg (Jan 24, 7:20 PM)
Low16 °F (Jan 28, 3:50 AM)15% (Feb 3, 2:50 PM)29.74 "Hg (Feb 7, 1:50 AM)
Average38 °F62%30.15 "Hg
* Reported Jan 23 2:20 AM — Feb 7 2:20 AM, Aleppo, Weather by CustomWeather, © 2016

Note: Actual official high and low records may vary slightly from our data, if they occured in-between our weather recording intervals... More about our weather records

Advertising

Aleppo Weather History for the Previous 24 Hours

 ConditionsComfort  
Time TempWeatherWind HumidityBarometerVisibility
2:20 AM
Sun, Feb 7
41 °FSleet. Overcast.No wind93%29.74 "Hg5 mi
1:50 AM41 °FSleet. Overcast.No wind93%29.74 "Hg5 mi
1:20 AM41 °FLight rain. Overcast.No wind93%29.77 "Hg4 mi
12:50 AM41 °FLight rain. Overcast.No wind93%29.77 "Hg4 mi
12:20 AM39 °FOvercast.No wind100%29.77 "Hg4 mi
11:50 PM
Sat, Feb 6
39 °FOvercast.2 mph93%29.77 "Hg4 mi
10:50 PM39 °FSleet. Fog.No wind93%29.77 "Hg4 mi
10:20 PM39 °FPartly cloudy.No wind93%29.77 "Hg4 mi
9:50 PM39 °FSleet. Fog.No wind93%29.77 "Hg4 mi
9:20 PM39 °FFog.No wind93%29.77 "Hg2 mi
8:50 PM37 °FFog.No wind100%29.77 "Hg2 mi
8:20 PM37 °FFog.1 mph93%29.77 "Hg2 mi
7:50 PM39 °FFog.No wind93%29.77 "Hg2 mi
7:20 PM39 °FMostly cloudy.No wind93%29.77 "Hg4 mi
6:50 PM41 °FPassing clouds.5 mph93%29.77 "Hg4 mi
6:20 PM41 °FMostly cloudy.3 mph93%29.77 "Hg4 mi
5:50 PM43 °FMostly cloudy.1 mph93%29.77 "Hg4 mi
5:20 PM43 °FLight rain. Mostly cloudy.No wind93%29.77 "Hg4 mi
4:50 PM43 °FLight rain. Fog.3 mph93%29.77 "Hg2 mi
4:20 PM43 °FRain. Mostly cloudy.No wind93%29.77 "Hg2 mi
3:50 PM43 °FLight rain. Fog.2 mph93%29.80 "Hg2 mi
3:20 PM43 °FLight rain. Fog.No wind93%29.77 "Hg2 mi
2:50 PM45 °FLight rain. Fog.6 mph87%29.80 "Hg2 mi
2:20 PM45 °FMostly cloudy.7 mph87%29.80 "Hg4 mi
1:50 PM45 °FMostly cloudy.3 mph87%29.80 "Hg4 mi
1:20 PM45 °FLight rain. Mostly cloudy.1 mph87%29.80 "Hg4 mi
12:50 PM45 °FLight rain. Mostly cloudy.3 mph87%29.80 "Hg4 mi
12:20 PM43 °FLight rain. Mostly cloudy.6 mph87%29.83 "Hg4 mi
11:50 AM43 °FLight rain. Mostly cloudy.6 mph87%29.86 "Hg4 mi
11:20 AM43 °FMostly cloudy.8 mph87%29.86 "Hg4 mi
10:50 AM45 °FLight rain. Mostly cloudy.7 mph81%29.86 "Hg4 mi
10:20 AM43 °FCloudy.6 mph87%29.86 "Hg4 mi
9:50 AM43 °FLight rain. Mostly cloudy.2 mph81%29.89 "Hg4 mi
9:20 AM41 °FLight rain. Mostly cloudy.No wind87%29.89 "Hg4 mi
8:50 AM41 °FLight rain. Broken clouds.1 mph87%29.89 "Hg6 mi
8:20 AM41 °FLight rain. More clouds than sun.1 mph87%29.89 "Hg4 mi
7:50 AM41 °FLight rain. More clouds than sun.No wind81%29.89 "Hg5 mi
7:20 AM41 °FLight rain. More clouds than sun.1 mph76%29.89 "Hg4 mi
6:50 AM43 °FBroken clouds.8 mph71%29.86 "HgN/A
5:50 AM43 °FPartly cloudy.8 mph66%29.86 "HgN/A
5:20 AM43 °FPartly cloudy.7 mph66%29.89 "HgN/A
4:50 AM43 °FPartly cloudy.5 mph66%29.89 "HgN/A
Weather by CustomWeather, © 2016

See weather overviewHow to use our weather pages